(335613) = 2006 FM9

Discovered at Siding Spring on 2006-03-26 by Siding Spring Survey.

Orbit

Orbit type: Main Belt

Note: WebGL enabled browser required.

epoch2023-09-13.0
epoch JD2460200.5
perihelion date2022-06-10.37019
perihelion JD2459740.87019
argument of perihelion (°)251.60421
ascending node (°)315.18000
inclination (°)23.92459
eccentricity0.3140500
perihelion distance (AU)2.1032572
Tisserand w.r.t. Jupiter3.0
ΔV w.r.t. Earth (km/sec)11.6
semimajor axis (AU)3.0661959
mean anomaly (°)84.37469
mean daily motion (°/day)0.18357100
aphelion distance (AU)4.029
period (years)5.37
P-vector [x]-0.83524141
P-vector [y]-0.20731862
P-vector [z]-0.50930421
Q-vector [x]0.46974412
Q-vector [y]-0.75049271
Q-vector [z]-0.46486681
absolute magnitude15.47
phase slope0.15
uncertainty0
referenceMPEC 2023-R69
observations used428
oppositions11
arc length (days)6375
first opposition used2006
last opposition used2023
residual rms (arc-secs)0.67
perturbers coarse indicatorM-v
perturbers precise indicator003Ek
first observation date used2006-03-26.0
last observation date used2023-09-08.0
computer nameMPCLINUX
JD of orbit computation2456151.693988
perihelion JD uncertainty (days)5.0836E-04
argument of perihelion uncertainty (°)1.1893E-04
ascending node uncertainty (°)2.0316E-05
inclination uncertainty (°)1.4633E-05
eccentricity uncertainty 1.0376E-07
perihelion distance uncertainty (AU)4.0571E-07
Minimum Orbit Intersection Distances (in AU)
for orbit epoch: 2460200.5, reference: E2023-R69
Mercury1.71712
Venus1.48024
Earth1.22707
Mars0.72399
Jupiter1.66779
Saturn5.90257
Uranus15.866
Neptune26.1977

Observations

439 total observations over interval: 2006 03 26.48831 – 2023 09 08.401729
These data are available for download (format description).

Date (UT) J2000 RA J2000 Dec Magn Location Ref
2006 03 26.48831 11 40 18.19 -37 10 09.3 17.7 V E12 – Siding Spring Survey MPS 167234
2006 03 26.49877 11 40 17.25 -37 10 11.7 18.1 V E12 – Siding Spring Survey MPS 167234
2006 03 26.50954 11 40 16.39 -37 10 15.0 18.0 V E12 – Siding Spring Survey MPS 167234
2006 03 26.52067 11 40 15.52 -37 10 18.9 18.1 V E12 – Siding Spring Survey MPS 167234
2006 03 26.56987 11 40 11.58 -37 10 33.6   E12 – Siding Spring Survey MPS 167234
2006 03 26.57029 11 40 11.54 -37 10 34.0   E12 – Siding Spring Survey MPS 167234
2006 03 26.57071 11 40 11.50 -37 10 34.2   E12 – Siding Spring Survey MPS 167234
2006 03 26.72506 11 39 59.21 -37 11 19.5 18.4 V E12 – Siding Spring Survey MPS 167234
2006 03 26.72711 11 39 59.03 -37 11 20.2 18.3 V E12 – Siding Spring Survey MPS 167234
2006 03 26.72914 11 39 58.90 -37 11 20.6 18.5 V E12 – Siding Spring Survey MPS 167234
2006 03 26.73120 11 39 58.75 -37 11 21.2 18.3 V E12 – Siding Spring Survey MPS 167234
2006 03 26.76014 11 39 56.48 -37 11 29.6 18.1 V E12 – Siding Spring Survey MPS 167234
2006 03 26.76304 11 39 56.23 -37 11 30.0 18.3 V E12 – Siding Spring Survey MPS 167234
2006 03 26.76597 11 39 56.01 -37 11 30.9 18.2 V E12 – Siding Spring Survey MPS 167234
2006 03 26.76889 11 39 55.80 -37 11 31.8 18.2 V E12 – Siding Spring Survey MPS 167234
2006 03 27.46660 11 39 03.06 -37 14 57.6 18.2 V E12 – Siding Spring Survey MPS 167234
2006 03 27.46951 11 39 02.84 -37 14 58.5 18.3 V E12 – Siding Spring Survey MPS 167235
2006 03 27.47243 11 39 02.59 -37 14 59.5 18.2 V E12 – Siding Spring Survey MPS 167235
2006 03 27.47534 11 39 02.37 -37 15 00.2 18.1 V E12 – Siding Spring Survey MPS 167235
2006 03 27.66926 11 38 46.96 -37 15 53.7 18.1 V E12 – Siding Spring Survey MPS 167235
2006 03 27.67220 11 38 46.71 -37 15 54.9 18.3 V E12 – Siding Spring Survey MPS 167235
2006 03 27.67510 11 38 46.50 -37 15 55.4 18.4 V E12 – Siding Spring Survey MPS 167235
2006 03 27.67803 11 38 46.28 -37 15 55.6 18.0 V E12 – Siding Spring Survey MPS 167235
2006 04 05.63953 11 27 54.25 -37 39 26.1 18.5 V E12 – Siding Spring Survey MPS 168294
2006 04 05.64357 11 27 53.96 -37 39 26.8 18.7 V E12 – Siding Spring Survey MPS 168294
2006 04 05.64762 11 27 53.71 -37 39 26.8 18.4 V E12 – Siding Spring Survey MPS 168294
2006 04 05.65168 11 27 53.38 -37 39 26.7 18.4 V E12 – Siding Spring Survey MPS 168294
2006 04 06.47433 11 26 58.95 -37 39 56.0 18.3 V E12 – Siding Spring Survey MPS 168294
2006 04 06.48484 11 26 58.16 -37 39 57.1 18.6 V E12 – Siding Spring Survey MPS 168294
2006 04 06.49561 11 26 57.48 -37 39 56.7 18.5 V E12 – Siding Spring Survey MPS 168294
2006 04 06.50631 11 26 56.72 -37 39 57.0 18.4 V E12 – Siding Spring Survey MPS 168294
2006 04 25.54122 11 12 07.20 -36 52 17.2 18.4 V E12 – Siding Spring Survey MPS 169938
2006 04 25.55522 11 12 06.80 -36 52 13.4 18.5 V E12 – Siding Spring Survey MPS 169939
2006 04 25.56919 11 12 06.48 -36 52 09.5 18.5 V E12 – Siding Spring Survey MPS 169939
2006 05 21.46920 11 16 08.14 -34 37 49.4 18.8 V E12 – Siding Spring Survey MPS 172078
2006 05 21.47838 11 16 08.50 -34 37 47.4 18.9 V E12 – Siding Spring Survey MPS 172078
2006 05 21.48753 11 16 08.83 -34 37 44.0 19.4 V E12 – Siding Spring Survey MPS 172078
2006 05 27.45082 11 20 47.25 -34 11 06.1 19.2 V E12 – Siding Spring Survey MPS 172888
2006 05 27.46037 11 20 47.76 -34 11 04.2 19.4 V E12 – Siding Spring Survey MPS 172888
2006 05 27.46990 11 20 48.19 -34 11 00.6 19.0 V E12 – Siding Spring Survey MPS 172888
2006 05 27.47944 11 20 48.69 -34 10 59.3 19.3 V E12 – Siding Spring Survey MPS 172888
2010 02 08.349464 03 01 54.48 +41 19 44.0   C51 – WISE MPS 331927
2010 02 08.746376 03 02 09.68 +41 17 34.4   C51 – WISE MPS 331927
2010 02 08.878681 03 02 14.98 +41 16 46.9   C51 – WISE MPS 331927
2010 02 08.944896 03 02 17.69 +41 16 26.3   C51 – WISE MPS 331927
2010 02 09.01111 03 02 20.51 +41 16 03.4   C51 – WISE MPS 331927
2010 02 09.077200 03 02 22.961 +41 15 41.58   C51 – WISE MPS 927064
2010 02 09.341936 03 02 33.374 +41 14 18.10   C51 – WISE MPS 927064
2010 02 09.474241 03 02 38.856 +41 13 31.33   C51 – WISE MPS 927064
2011 01 11.43083 09 31 31.00 +19 21 50.5 19.8 V 703 – Catalina Sky Survey MPS 365593
2011 01 11.43612 09 31 30.79 +19 21 49.5 20.0 V 703 – Catalina Sky Survey MPS 365593
2011 01 11.44139 09 31 30.43 +19 21 48.7 19.5 V 703 – Catalina Sky Survey MPS 365593
2011 01 11.44664 09 31 30.25 +19 21 46.5 19.5 V 703 – Catalina Sky Survey MPS 365593
2011 01 12.35783 09 30 43.27 +19 17 59.0   691 – Steward Observatory, Kitt Peak-Spacewatch MPS 365593
2011 01 12.37903 09 30 42.10 +19 17 53.6   691 – Steward Observatory, Kitt Peak-Spacewatch MPS 365593
2011 01 12.39677 09 30 41.17 +19 17 49.3   691 – Steward Observatory, Kitt Peak-Spacewatch MPS 365593
2011 01 13.26968 09 29 55.01 +19 14 12.1 19.4   704 – Lincoln Laboratory ETS, New Mexico MPS 365593
2011 01 13.29606 09 29 53.49 +19 14 04.7 19.4   704 – Lincoln Laboratory ETS, New Mexico MPS 365593
2011 01 13.30924 09 29 52.85 +19 14 01.5 19.3   704 – Lincoln Laboratory ETS, New Mexico MPS 365593
2011 01 24.40734 09 18 22.46 +18 26 01.8 18.3 V 703 – Catalina Sky Survey MPS 367041
2011 01 24.41439 09 18 21.92 +18 25 59.5 18.8 V 703 – Catalina Sky Survey MPS 367041
2011 01 24.42147 09 18 21.42 +18 25 58.0 18.9 V 703 – Catalina Sky Survey MPS 367041
2011 01 24.42854 09 18 20.98 +18 25 55.7 18.7 V 703 – Catalina Sky Survey MPS 367041
2011 01 27.41087 09 14 49.96 +18 12 10.6 18.4   704 – Lincoln Laboratory ETS, New Mexico MPS 367041
2011 01 27.43679 09 14 47.92 +18 12 02.7 18.5   704 – Lincoln Laboratory ETS, New Mexico MPS 367041
2011 01 27.44970 09 14 47.01 +18 11 59.4 18.7   704 – Lincoln Laboratory ETS, New Mexico MPS 367041
2011 01 27.46273 09 14 46.14 +18 11 56.1 19.0   704 – Lincoln Laboratory ETS, New Mexico MPS 367041
2011 01 30.39002 09 11 11.47 +17 57 59.1 18.6 V G96 – Mt. Lemmon Survey MPS 368556
2011 01 30.39801 09 11 10.86 +17 57 56.7 18.6 V G96 – Mt. Lemmon Survey MPS 368556
2011 01 30.40608 09 11 10.24 +17 57 54.3 18.6 V G96 – Mt. Lemmon Survey MPS 368556
2011 01 30.41415 09 11 09.63 +17 57 52.0 18.6 V G96 – Mt. Lemmon Survey MPS 368556
2011 01 30.53190 09 11 00.899 +17 57 19.03 19.2 w F51 – Pan-STARRS 1, Haleakala MPS 379700
2011 01 30.54704 09 10 59.744 +17 57 14.52 19.2 w F51 – Pan-STARRS 1, Haleakala MPS 379700
2011 01 30.56443 09 10 58.418 +17 57 09.37 19.2 w F51 – Pan-STARRS 1, Haleakala MPS 379700
2011 01 30.57957 09 10 57.263 +17 57 04.86 19.0 w F51 – Pan-STARRS 1, Haleakala MPS 379700
2011 02 05.29187 09 03 45.50 +17 28 20.0 18.3   704 – Lincoln Laboratory ETS, New Mexico MPS 369533
2011 02 05.30542 09 03 44.42 +17 28 15.2 18.3 V 703 – Catalina Sky Survey MPS 369533
2011 02 05.30544 09 03 44.45 +17 28 14.7 18.2   704 – Lincoln Laboratory ETS, New Mexico MPS 369533
2011 02 05.31666 09 03 43.48 +17 28 11.8 18.5 V 703 – Catalina Sky Survey MPS 369533
2011 02 05.31977 09 03 43.32 +17 28 10.7 18.9   704 – Lincoln Laboratory ETS, New Mexico MPS 369533
2011 02 05.32793 09 03 42.55 +17 28 08.0 18.4 V 703 – Catalina Sky Survey MPS 369533
2011 02 05.33448 09 03 42.05 +17 28 07.2 18.8   704 – Lincoln Laboratory ETS, New Mexico MPS 369533
2011 02 05.33920 09 03 41.68 +17 28 04.8 18.1 V 703 – Catalina Sky Survey MPS 369533
2011 02 05.34784 09 03 41.15 +17 28 01.8 19.2   704 – Lincoln Laboratory ETS, New Mexico MPS 369533
2011 02 06.30250 09 02 28.25 +17 23 01.5 18.9   704 – Lincoln Laboratory ETS, New Mexico MPS 369533
2011 02 06.31579 09 02 27.25 +17 22 56.9 19.1   704 – Lincoln Laboratory ETS, New Mexico MPS 369533
2011 02 06.32896 09 02 26.23 +17 22 54.1 19.1   704 – Lincoln Laboratory ETS, New Mexico MPS 369533
2011 02 06.34223 09 02 25.16 +17 22 49.2 18.9   704 – Lincoln Laboratory ETS, New Mexico MPS 369533
2011 02 08.23188 09 00 01.15 +17 12 42.7 18.5 V G96 – Mt. Lemmon Survey MPS 369533
2011 02 08.23246 09 00 01.15 +17 12 42.4 18.5 V G96 – Mt. Lemmon Survey MPS 369533
2011 02 08.23829 09 00 00.64 +17 12 40.6 18.5 V G96 – Mt. Lemmon Survey MPS 369533
2011 02 08.23889 09 00 00.64 +17 12 40.2 18.5 V G96 – Mt. Lemmon Survey MPS 369533
2011 02 08.24469 09 00 00.18 +17 12 38.5 18.4 V G96 – Mt. Lemmon Survey MPS 369533
2011 02 08.24529 09 00 00.14 +17 12 38.3 18.4 V G96 – Mt. Lemmon Survey MPS 369533
